30/04/2024 14:45:00,0.481
30/04/2024 15:00:00,0.481
30/04/2024 15:15:00,0.48
30/04/2024 15:30:00,0.48
30/04/2024 15:45:00,0.48
30/04/2024 16:00:00,0.48
30/04/2024 16:15:00,0.48
30/04/2024 16:30:00,0.48
30/04/2024 16:45:00,0.48
30/04/2024 17:00:00,0.48
30/04/2024 17:15:00,0.48
30/04/2024 17:30:00,0.48
30/04/2024 17:45:00,0.48
30/04/2024 18:00:00,0.48
30/04/2024 18:15:00,0.48
30/04/2024 18:30:00,0.48
30/04/2024 18:45:00,0.48
30/04/2024 19:00:00,0.48
30/04/2024 19:15:00,0.48
30/04/2024 19:30:00,0.48
30/04/2024 19:45:00,0.48
30/04/2024 20:00:00,0.48
30/04/2024 20:15:00,0.479
30/04/2024 20:30:00,0.479
30/04/2024 20:45:00,0.479
30/04/2024 21:00:00,0.479
30/04/2024 21:15:00,0.479
30/04/2024 21:30:00,0.479
30/04/2024 21:45:00,0.479
30/04/2024 22:00:00,0.48
30/04/2024 22:15:00,0.48
30/04/2024 22:30:00,0.48
30/04/2024 22:45:00,0.479
30/04/2024 23:00:00,0.478
30/04/2024 23:15:00,0.478
30/04/2024 23:30:00,0.478
30/04/2024 23:45:00,0.479
01/05/2024 00:00:00,0.479
01/05/2024 00:15:00,0.479
01/05/2024 00:30:00,0.479
01/05/2024 00:45:00,0.479
01/05/2024 01:00:00,0.478
01/05/2024 01:15:00,0.478
01/05/2024 01:30:00,0.478
01/05/2024 01:45:00,0.478
01/05/2024 02:00:00,0.478
01/05/2024 02:15:00,0.478
01/05/2024 02:30:00,0.478
01/05/2024 02:45:00,0.478
01/05/2024 03:00:00,0.478
01/05/2024 03:15:00,0.478
01/05/2024 03:30:00,0.478
01/05/2024 03:45:00,0.478
01/05/2024 04:00:00,0.478
01/05/2024 04:15:00,0.478
01/05/2024 04:30:00,0.478
01/05/2024 04:45:00,0.478
01/05/2024 05:00:00,0.478
01/05/2024 05:15:00,0.478
01/05/2024 05:30:00,0.478
01/05/2024 05:45:00,0.478
01/05/2024 06:00:00,0.478
01/05/2024 06:15:00,0.478
01/05/2024 06:30:00,0.478
01/05/2024 06:45:00,0.478
01/05/2024 07:00:00,0.478
01/05/2024 07:15:00,0.478
01/05/2024 07:30:00,0.478
01/05/2024 07:45:00,0.478
01/05/2024 08:00:00,0.478
01/05/2024 08:15:00,0.478
01/05/2024 08:30:00,0.478
01/05/2024 08:45:00,0.478
01/05/2024 09:00:00,0.478
01/05/2024 09:15:00,0.478
01/05/2024 09:30:00,0.478
01/05/2024 09:45:00,0.478
01/05/2024 10:00:00,0.478
01/05/2024 10:15:00,0.478
01/05/2024 10:30:00,0.478
01/05/2024 10:45:00,0.478
01/05/2024 11:00:00,0.478
01/05/2024 11:15:00,0.478
01/05/2024 11:30:00,0.478
01/05/2024 11:45:00,0.478
01/05/2024 12:00:00,0.478
01/05/2024 12:15:00,0.478
01/05/2024 12:30:00,0.478
01/05/2024 12:45:00,0.478
01/05/2024 13:00:00,0.478
01/05/2024 13:15:00,0.478
01/05/2024 13:30:00,0.478
01/05/2024 13:45:00,0.478
01/05/2024 14:00:00,0.478
01/05/2024 14:15:00,0.478
01/05/2024 14:30:00,0.478
01/05/2024 14:45:00,0.478
01/05/2024 15:00:00,0.478
01/05/2024 15:15:00,0.478
01/05/2024 15:30:00,0.478
01/05/2024 15:45:00,0.478
01/05/2024 16:00:00,0.478
01/05/2024 16:15:00,0.478
01/05/2024 16:30:00,0.478
01/05/2024 16:45:00,0.478
01/05/2024 17:00:00,0.478
01/05/2024 17:15:00,0.478
01/05/2024 17:30:00,0.478
01/05/2024 17:45:00,0.478
01/05/2024 18:00:00,0.478
01/05/2024 18:15:00,0.478
01/05/2024 18:30:00,0.478
01/05/2024 18:45:00,0.478
01/05/2024 19:00:00,0.478
01/05/2024 19:15:00,0.478
01/05/2024 19:30:00,0.478
01/05/2024 19:45:00,0.478
01/05/2024 20:00:00,0.478
01/05/2024 20:15:00,0.478
01/05/2024 20:30:00,0.478
01/05/2024 20:45:00,0.478
01/05/2024 21:00:00,0.478
01/05/2024 21:15:00,0.478
01/05/2024 21:30:00,0.478
01/05/2024 21:45:00,0.478
01/05/2024 22:00:00,0.478
01/05/2024 22:15:00,0.478
01/05/2024 22:30:00,0.478
01/05/2024 22:45:00,0.478
01/05/2024 23:00:00,0.478
01/05/2024 23:15:00,0.478
01/05/2024 23:30:00,0.478
01/05/2024 23:45:00,0.477
02/05/2024 00:00:00,0.477
02/05/2024 00:15:00,0.477
02/05/2024 00:30:00,0.477
02/05/2024 00:45:00,0.477
02/05/2024 01:00:00,0.477
02/05/2024 01:15:00,0.477
02/05/2024 01:30:00,0.476
02/05/2024 01:45:00,0.477
02/05/2024 02:00:00,0.477
02/05/2024 02:15:00,0.476
02/05/2024 02:30:00,0.476
02/05/2024 02:45:00,0.476
02/05/2024 03:00:00,0.476
02/05/2024 03:15:00,0.476
02/05/2024 03:30:00,0.477
02/05/2024 03:45:00,0.476
02/05/2024 04:00:00,0.476
02/05/2024 04:15:00,0.477
02/05/2024 04:30:00,0.477
02/05/2024 04:45:00,0.477
02/05/2024 05:00:00,0.477
02/05/2024 05:15:00,0.477
02/05/2024 05:30:00,0.477
02/05/2024 05:45:00,0.477
02/05/2024 06:00:00,0.477
02/05/2024 06:15:00,0.477
02/05/2024 06:30:00,0.477
02/05/2024 06:45:00,0.477
02/05/2024 07:00:00,0.477
02/05/2024 07:15:00,0.478
02/05/2024 07:30:00,0.478
02/05/2024 07:45:00,0.478
02/05/2024 08:00:00,0.478
02/05/2024 08:15:00,0.478
02/05/2024 08:30:00,0.478
02/05/2024 08:45:00,0.478
02/05/2024 09:00:00,0.478
02/05/2024 09:15:00,0.478
02/05/2024 09:30:00,0.478
02/05/2024 09:45:00,0.478
02/05/2024 10:00:00,0.478
02/05/2024 10:15:00,0.478
02/05/2024 10:30:00,0.478
02/05/2024 10:45:00,0.478
02/05/2024 11:00:00,0.478
02/05/2024 11:15:00,0.478
02/05/2024 11:30:00,0.478
02/05/2024 11:45:00,0.478
02/05/2024 12:00:00,0.478
02/05/2024 12:15:00,0.478
02/05/2024 12:30:00,0.478
02/05/2024 12:45:00,0.478
02/05/2024 13:00:00,0.478
02/05/2024 13:15:00,0.478
02/05/2024 13:30:00,0.478
02/05/2024 13:45:00,0.478
02/05/2024 14:00:00,0.478
02/05/2024 14:15:00,0.478
02/05/2024 14:30:00,0.478
02/05/2024 14:45:00,0.478
02/05/2024 15:00:00,0.478
02/05/2024 15:15:00,0.478
02/05/2024 15:30:00,0.478
02/05/2024 15:45:00,0.478
02/05/2024 16:00:00,0.478
02/05/2024 16:15:00,0.478
02/05/2024 16:30:00,0.478
02/05/2024 16:45:00,0.478
02/05/2024 17:00:00,0.478
02/05/2024 17:15:00,0.478
02/05/2024 17:30:00,0.478
02/05/2024 17:45:00,0.478
02/05/2024 18:00:00,0.478
02/05/2024 18:15:00,0.478
02/05/2024 18:30:00,0.478
02/05/2024 18:45:00,0.478
02/05/2024 19:00:00,0.477
02/05/2024 19:15:00,0.478
02/05/2024 19:30:00,0.478
02/05/2024 19:45:00,0.477
02/05/2024 20:00:00,0.477
02/05/2024 20:15:00,0.477
02/05/2024 20:30:00,0.477
02/05/2024 20:45:00,0.477
02/05/2024 21:00:00,0.477
02/05/2024 21:15:00,0.476
02/05/2024 21:30:00,0.476
02/05/2024 21:45:00,0.476
02/05/2024 22:00:00,0.476
02/05/2024 22:15:00,0.476
02/05/2024 22:30:00,0.476
02/05/2024 22:45:00,0.476
02/05/2024 23:00:00,0.476
02/05/2024 23:15:00,0.476
02/05/2024 23:30:00,0.476
02/05/2024 23:45:00,0.476
03/05/2024 00:00:00,0.476
03/05/2024 00:15:00,0.476
03/05/2024 00:30:00,0.476
03/05/2024 00:45:00,0.476
03/05/2024 01:00:00,0.476
03/05/2024 01:15:00,0.476
03/05/2024 01:30:00,0.476
03/05/2024 01:45:00,0.476
03/05/2024 02:00:00,0.476
03/05/2024 02:15:00,0.476
03/05/2024 02:30:00,0.476
03/05/2024 02:45:00,0.476
03/05/2024 03:00:00,0.476
03/05/2024 03:15:00,0.476
03/05/2024 03:30:00,0.476
03/05/2024 03:45:00,0.476
03/05/2024 04:00:00,0.476
03/05/2024 04:15:00,0.476
03/05/2024 04:30:00,0.476
03/05/2024 04:45:00,0.476
03/05/2024 05:00:00,0.476
03/05/2024 05:15:00,0.476
03/05/2024 05:30:00,0.476
03/05/2024 05:45:00,0.476
03/05/2024 06:00:00,0.476
03/05/2024 06:15:00,0.476
03/05/2024 06:30:00,0.476
03/05/2024 06:45:00,0.476
03/05/2024 07:00:00,0.476
03/05/2024 07:15:00,0.476
03/05/2024 07:30:00,0.476
03/05/2024 07:45:00,0.476
03/05/2024 08:00:00,0.476
03/05/2024 08:15:00,0.476
03/05/2024 08:30:00,0.476
03/05/2024 08:45:00,0.476
03/05/2024 09:00:00,0.476
03/05/2024 09:15:00,0.476
03/05/2024 09:30:00,0.476
03/05/2024 09:45:00,0.476
03/05/2024 10:00:00,0.476
03/05/2024 10:15:00,0.476
03/05/2024 10:30:00,0.476
03/05/2024 10:45:00,0.476
03/05/2024 11:00:00,0.476
03/05/2024 11:15:00,0.476
03/05/2024 11:30:00,0.476
03/05/2024 11:45:00,0.476
03/05/2024 12:00:00,0.476
03/05/2024 12:15:00,0.476
03/05/2024 12:30:00,0.476
03/05/2024 12:45:00,0.476
03/05/2024 13:00:00,0.477
03/05/2024 13:15:00,0.477
03/05/2024 13:30:00,0.477
03/05/2024 13:45:00,0.477
03/05/2024 14:00:00,0.477
03/05/2024 14:15:00,0.477
03/05/2024 14:30:00,0.477
03/05/2024 14:45:00,0.477
03/05/2024 15:00:00,0.477
03/05/2024 15:15:00,0.478
03/05/2024 15:30:00,0.478
03/05/2024 15:45:00,0.478
03/05/2024 16:00:00,0.479
03/05/2024 16:15:00,0.489
03/05/2024 16:30:00,0.496
03/05/2024 16:45:00,0.496
03/05/2024 17:00:00,0.496
03/05/2024 17:15:00,0.497
03/05/2024 17:30:00,0.496
03/05/2024 17:45:00,0.496
03/05/2024 18:00:00,0.493
03/05/2024 18:15:00,0.49
03/05/2024 18:30:00,0.489
03/05/2024 18:45:00,0.488
03/05/2024 19:00:00,0.486
03/05/2024 19:15:00,0.484
03/05/2024 19:30:00,0.484
03/05/2024 19:45:00,0.484
03/05/2024 20:00:00,0.482
03/05/2024 20:15:00,0.482
03/05/2024 20:30:00,0.481
03/05/2024 20:45:00,0.481
03/05/2024 21:00:00,0.481
03/05/2024 21:15:00,0.484
03/05/2024 21:30:00,0.486
03/05/2024 21:45:00,0.486
03/05/2024 22:00:00,0.486
03/05/2024 22:15:00,0.486
03/05/2024 22:30:00,0.484
03/05/2024 22:45:00,0.484
03/05/2024 23:00:00,0.484
03/05/2024 23:15:00,0.482
03/05/2024 23:30:00,0.482
03/05/2024 23:45:00,0.482
04/05/2024 00:00:00,0.484
04/05/2024 00:15:00,0.482
04/05/2024 00:30:00,0.482
04/05/2024 00:45:00,0.482
04/05/2024 01:00:00,0.482
04/05/2024 01:15:00,0.482
04/05/2024 01:30:00,0.484
04/05/2024 01:45:00,0.484
04/05/2024 02:00:00,0.484
04/05/2024 02:15:00,0.484
04/05/2024 02:30:00,0.484
04/05/2024 02:45:00,0.484
04/05/2024 03:00:00,0.484
04/05/2024 03:15:00,0.484
04/05/2024 03:30:00,0.484
04/05/2024 03:45:00,0.484
04/05/2024 04:00:00,0.484
04/05/2024 04:15:00,0.484
04/05/2024 04:30:00,0.484
04/05/2024 04:45:00,0.484
04/05/2024 05:00:00,0.484
04/05/2024 05:15:00,0.484
04/05/2024 05:30:00,0.482
04/05/2024 05:45:00,0.482
04/05/2024 06:00:00,0.482
04/05/2024 06:15:00,0.482
04/05/2024 06:30:00,0.482
04/05/2024 06:45:00,0.482
04/05/2024 07:00:00,0.482
04/05/2024 07:15:00,0.482
04/05/2024 07:30:00,0.482
04/05/2024 07:45:00,0.482
04/05/2024 08:00:00,0.481
04/05/2024 08:15:00,0.482
04/05/2024 08:30:00,0.481
04/05/2024 08:45:00,0.481
04/05/2024 09:00:00,0.481
04/05/2024 09:15:00,0.481
04/05/2024 09:30:00,0.481
04/05/2024 09:45:00,0.481
04/05/2024 10:00:00,0.481
04/05/2024 10:15:00,0.481
04/05/2024 10:30:00,0.481
04/05/2024 10:45:00,0.481
04/05/2024 11:00:00,0.481
04/05/2024 11:15:00,0.481
04/05/2024 11:30:00,0.481
04/05/2024 11:45:00,0.481
04/05/2024 12:00:00,0.481
04/05/2024 12:15:00,0.481
04/05/2024 12:30:00,0.48
04/05/2024 12:45:00,0.48
04/05/2024 13:00:00,0.48
04/05/2024 13:15:00,0.48
04/05/2024 13:30:00,0.48
04/05/2024 13:45:00,0.48
04/05/2024 14:00:00,0.48
04/05/2024 14:15:00,0.48
04/05/2024 14:30:00,0.48
04/05/2024 14:45:00,0.48
04/05/2024 15:00:00,0.48
04/05/2024 15:15:00,0.48
04/05/2024 15:30:00,0.48
04/05/2024 15:45:00,0.48
04/05/2024 16:00:00,0.48
04/05/2024 16:15:00,0.48
04/05/2024 16:30:00,0.48
04/05/2024 16:45:00,0.48
04/05/2024 17:00:00,0.48
04/05/2024 17:15:00,0.48
04/05/2024 17:30:00,0.48
04/05/2024 17:45:00,0.48
04/05/2024 18:00:00,0.48
04/05/2024 18:15:00,0.48
04/05/2024 18:30:00,0.48
04/05/2024 18:45:00,0.48
04/05/2024 19:00:00,0.48
04/05/2024 19:15:00,0.48
04/05/2024 19:30:00,0.48
04/05/2024 19:45:00,0.48
04/05/2024 20:00:00,0.48
04/05/2024 20:15:00,0.48
04/05/2024 20:30:00,0.48
04/05/2024 20:45:00,0.48
04/05/2024 21:00:00,0.48
04/05/2024 21:15:00,0.48
04/05/2024 21:30:00,0.48
04/05/2024 21:45:00,0.48
04/05/2024 22:00:00,0.48
04/05/2024 22:15:00,0.482
04/05/2024 22:30:00,0.484
04/05/2024 22:45:00,0.484
04/05/2024 23:00:00,0.484
04/05/2024 23:15:00,0.484
04/05/2024 23:30:00,0.484
04/05/2024 23:45:00,0.484
05/05/2024 00:00:00,0.484
05/05/2024 00:15:00,0.484
05/05/2024 00:30:00,0.484
05/05/2024 00:45:00,0.484
05/05/2024 01:00:00,0.482
05/05/2024 01:15:00,0.482
05/05/2024 01:30:00,0.482
05/05/2024 01:45:00,0.481
05/05/2024 02:00:00,0.481
05/05/2024 02:15:00,0.48
05/05/2024 02:30:00,0.48
05/05/2024 02:45:00,0.48
05/05/2024 03:00:00,0.48
05/05/2024 03:15:00,0.48
05/05/2024 03:30:00,0.48
05/05/2024 03:45:00,0.48
05/05/2024 04:00:00,0.48
05/05/2024 04:15:00,0.481
05/05/2024 04:30:00,0.481
05/05/2024 04:45:00,0.482
05/05/2024 05:00:00,0.482
05/05/2024 05:15:00,0.482
05/05/2024 05:30:00,0.484
05/05/2024 05:45:00,0.484
05/05/2024 06:00:00,0.486
05/05/2024 06:15:00,0.486
05/05/2024 06:30:00,0.486
05/05/2024 06:45:00,0.486
05/05/2024 07:00:00,0.486
05/05/2024 07:15:00,0.486
05/05/2024 07:30:00,0.485
05/05/2024 07:45:00,0.484
05/05/2024 08:00:00,0.484
05/05/2024 08:15:00,0.484
05/05/2024 08:30:00,0.482
05/05/2024 08:45:00,0.482
05/05/2024 09:00:00,0.482
05/05/2024 09:15:00,0.482
05/05/2024 09:30:00,0.482
05/05/2024 09:45:00,0.482
05/05/2024 10:00:00,0.481
05/05/2024 10:15:00,0.481
05/05/2024 10:30:00,0.481
05/05/2024 10:45:00,0.48
05/05/2024 11:00:00,0.48
05/05/2024 11:15:00,0.48
05/05/2024 11:30:00,0.48
05/05/2024 11:45:00,0.48
05/05/2024 12:00:00,0.48
05/05/2024 12:15:00,0.48
05/05/2024 12:30:00,0.48
05/05/2024 12:45:00,0.48
